Weather History for KPVU - April, 2013

Change the Weather History Date:

Sunday, April 7, 2013

  Actual Average Record
Temperature  
Mean Temperature 50 °F -  
Max Temperature 62 °F 54 °F 76 °F (1988)
Min Temperature 39 °F 33 °F 24 °F (2012)
Degree Days  
Heating Degree Days 14    
Moisture  
Dew Point 36 °F    
Average Humidity 66    
Maximum Humidity 93    
Minimum Humidity 27    
Precipitation  
Precipitation 0.00 in - - ()
Sea Level Pressure  
Sea Level Pressure 29.85 in    
Wind  
Wind Speed 4 mph (SE)    
Max Wind Speed 12 mph    
Max Gust Speed -    
Visibility 12 miles    
Events      
Averages and records for this station are not official NWS values.
T = Trace of Precipitation, MM = Missing Value Source: NWS Daily Summary

Daily Weather History Graph

Daily Weather History Graph

Search for Another Location

Airport or City:

Trip Planner

Search our weather history database for the weather conditions in past years. The results will help you decide how hot, cold, wet, or windy it might be!

Date:

Astronomy

Apr. 07, 2013 Rise Set
Actual Time 7:00 AM MDT 7:57 PM MDT
Civil Twilight 6:32 AM MDT 8:25 PM MDT
Nautical Twilight 6:00 AM MDT 8:58 PM MDT
Astronomical Twilight 5:25 AM MDT 9:32 PM MDT
Moon 5:20 AM MDT (4/7) 5:33 PM MDT (4/7)
Length of Visible Light 13h 52m
Length of Day
12h 57m
Waning Crescent, 8% of the Moon is Illuminated
Apr 7
Waning Crescent
Apr 10
New
Apr 18
First Quarter
Apr 25
Full
May 2
Last Quarter

Hourly Weather History & Observations

Time (MDT) Temp. Windchill Dew Point Humidity Pressure Visibility Wind Dir Wind Speed Gust Speed Precip Events Conditions
12:15 AM 44.6 °F - 39.2 °F 81% 29.99 in 10.0 mi Calm Calm - N/A   Clear
12:35 AM 46.4 °F 44.3 °F 39.2 °F 76% 29.99 in 10.0 mi ESE 4.6 mph - N/A   Clear
12:55 AM 44.6 °F - 37.4 °F 76% 29.99 in 10.0 mi Calm Calm - N/A   Clear
1:15 AM 42.8 °F 39.3 °F 37.4 °F 81% 29.98 in 10.0 mi SE 5.8 mph - N/A   Clear
1:35 AM 42.8 °F 38.0 °F 39.2 °F 87% 29.98 in 10.0 mi SE 8.1 mph - N/A   Clear
1:55 AM 42.8 °F 39.3 °F 39.2 °F 87% 29.97 in 10.0 mi SE 5.8 mph - N/A   Clear
2:15 AM 42.8 °F 38.6 °F 37.4 °F 81% 29.96 in 10.0 mi SSE 6.9 mph - N/A   Clear
2:35 AM 39.2 °F 35.9 °F 35.6 °F 87% 29.96 in 10.0 mi SSE 4.6 mph - N/A   Clear
2:55 AM 39.2 °F 35.9 °F 35.6 °F 87% 29.96 in 10.0 mi ESE 4.6 mph - N/A   Clear
3:15 AM 41.0 °F 37.1 °F 37.4 °F 87% 29.95 in 10.0 mi ESE 5.8 mph - N/A   Clear
3:35 AM 39.2 °F - 37.4 °F 93% 29.95 in 10.0 mi Calm Calm - N/A   Clear
3:55 AM 39.2 °F 35.0 °F 35.6 °F 87% 29.95 in 10.0 mi SSE 5.8 mph - N/A   Clear
4:15 AM 39.2 °F 35.0 °F 33.8 °F 81% 29.94 in 10.0 mi SSE 5.8 mph - N/A   Clear
4:35 AM 39.2 °F 35.9 °F 35.6 °F 87% 29.94 in 10.0 mi SE 4.6 mph - N/A   Clear
4:55 AM 39.2 °F 34.2 °F 33.8 °F 81% 29.93 in 10.0 mi SE 6.9 mph - N/A   Clear
5:15 AM 39.2 °F 34.2 °F 35.6 °F 87% 29.93 in 10.0 mi SSE 6.9 mph - N/A   Clear
5:35 AM 41.0 °F 36.4 °F 35.6 °F 81% 29.93 in 10.0 mi SE 6.9 mph - N/A   Clear
5:55 AM 42.8 °F 38.0 °F 35.6 °F 76% 29.93 in 10.0 mi SE 8.1 mph - N/A   Mostly Cloudy
6:15 AM 42.8 °F - 37.4 °F 81% 29.93 in 10.0 mi Calm Calm - N/A   Overcast
6:35 AM 39.2 °F 37.0 °F 35.6 °F 87% 29.93 in 10.0 mi East 3.5 mph - N/A   Overcast
6:48 AM 39.2 °F - 35.6 °F 87% 29.92 in 15.0 mi Calm Calm - N/A   Mostly Cloudy
7:56 AM 41.0 °F 37.1 °F 37.4 °F 87% 29.93 in 15.0 mi East 5.8 mph - N/A   Mostly Cloudy
8:55 AM 44.6 °F 42.2 °F 35.6 °F 71% 29.93 in 15.0 mi East 4.6 mph - N/A   Mostly Cloudy
9:54 AM 46.4 °F - 35.6 °F 66% 29.93 in 15.0 mi Calm Calm - N/A   Mostly Cloudy
10:47 AM 51.8 °F - 37.4 °F 58% 29.93 in 15.0 mi East 3.5 mph - N/A   Partly Cloudy
11:47 AM 53.6 °F - 35.6 °F 51% 29.92 in 15.0 mi SSE 5.8 mph - N/A   Scattered Clouds
12:48 PM 60.8 °F - 37.4 °F 42% 29.89 in 15.0 mi SE 8.1 mph - N/A   Mostly Cloudy
1:47 PM 62.6 °F - 35.6 °F 37% 29.86 in 15.0 mi SSE 4.6 mph - N/A   Mostly Cloudy
2:50 PM 62.6 °F - 33.8 °F 34% 29.83 in 15.0 mi Variable 5.8 mph - N/A   Mostly Cloudy
3:50 PM 62.6 °F - 28.4 °F 27% 29.81 in 15.0 mi Variable 5.8 mph - N/A   Mostly Cloudy
4:50 PM 60.8 °F - 28.4 °F 29% 29.78 in 15.0 mi Variable 4.6 mph - N/A   Overcast
5:50 PM 60.8 °F - 33.8 °F 36% 29.75 in 15.0 mi Variable 5.8 mph - N/A   Overcast
6:50 PM 59.0 °F - 33.8 °F 39% 29.72 in 15.0 mi Variable 5.8 mph - N/A   Overcast
7:50 PM 57.2 °F - 35.6 °F 44% 29.68 in 15.0 mi Variable 5.8 mph - N/A   Overcast
8:50 PM 51.8 °F - 37.4 °F 58% 29.66 in 15.0 mi SE 9.2 mph - N/A   Overcast
9:15 PM 53.6 °F - 33.8 °F 47% 29.66 in 10.0 mi South 8.1 mph - N/A   Clear
9:35 PM 51.8 °F - 33.8 °F 50% 29.65 in 10.0 mi SSE 5.8 mph - N/A   Clear
9:55 PM 51.8 °F - 39.2 °F 62% 29.64 in 10.0 mi ESE 4.6 mph - N/A   Clear
10:15 PM 51.8 °F - 39.2 °F 62% 29.63 in 10.0 mi North 5.8 mph - N/A   Scattered Clouds
10:35 PM 53.6 °F - 37.4 °F 54% 29.64 in 10.0 mi Calm Calm - N/A   Partly Cloudy
10:55 PM 53.6 °F - 33.8 °F 47% 29.62 in 10.0 mi Calm Calm - N/A   Scattered Clouds
11:15 PM 53.6 °F - 33.8 °F 47% 29.62 in 10.0 mi NW 11.5 mph - N/A   Partly Cloudy
11:35 PM 53.6 °F - 41.0 °F 62% 29.62 in 10.0 mi SW 9.2 mph - N/A   Mostly Cloudy
11:55 PM 53.6 °F - 33.8 °F 47% 29.61 in 10.0 mi SSE 6.9 mph - N/A   Mostly Cloudy